Temperature
17 17 17 18 18 18 18 18 18 18 18 18 18 18 18 18 18 18 18 18 18 18 18 18 18 18 18 18 18 18 18 18 18 18 18 18 18 18 18 18 18 18 18
17 17 17 18 18 18 18 18 18 18 18 18 18 18 17 17 17 17 17 17 17 17 17 17 17 17 17 17 17 17 17 17 18 18 18 18 18 18 18 18 18 18 18
17 17 17 17 17 18 18 18 18 18 17 17 17 17 17 17 17 17 17 17 17 17 17 17 17 17 17 17 17 17 17 17 17 17 18 18 18 18 18 18 18 18 18
17 17 17 17 17 17 17 17 17 17 17 17 17 17 17 17 17 17 17 17 17 17 17 17 17 17 17 17 17 17 17 17 17 17 17 17 17 17 18 18 17 18 18
17 17 17 17 17 17 17 17 17 17 17 17 17 17 17 17 17 16 16 16 16 17 17 17 17 17 17 17 17 17 17 17 17 17 17 17 17 17 17 17 17 18 18
17 17 17 17 17 17 17 17 17 17 17 17 16 16 16 16 16 16 16 16 16 16 16 16 16 16 16 17 16 16 17 17 17 17 17 17 17 17 17 17 17 17 17
17 17 17 17 17 17 17 17 16 16 16 16 16 16 16 16 16 15 16 16 16 16 16 16 16 16 16 16 16 16 16 17 17 17 17 17 17 17 17 17 17 17 17
17 17 17 17 17 17 17 17 16 16 16 16 16 16 16 16 15 15 16 15 16 16 16 16 16 16 16 16 16 16 16 16 17 17 17 17 17 17 17 17 17 17 17
17 17 17 17 17 17 16 16 16 16 16 16 16 16 16 16 15 15 15 15 15 15 16 16 16 16 16 16 16 16 16 16 16 16 17 17 17 17 17 17 17 17 17
17 17 17 17 16 16 16 16 16 16 16 16 16 16 15 15 15 15 15 15 15 15 15 16 16 16 16 16 16 16 16 16 16 16 16 16 16 17 17 17 17 17 17
17 17 17 16 16 16 16 16 16 16 16 16 16 15 15 15 15 15 15 15 15 15 15 15 16 16 16 16 16 16 16 16 16 16 16 16 16 16 17 17 17 17 17
17 17 17 16 16 16 16 16 16 16 16 16 15 15 15 15 15 15 15 15 15 15 15 15 15 15 16 16 16 16 16 16 16 16 16 16 16 16 16 16 17 17 17
17 17 16 16 16 16 16 16 16 16 16 15 15 15 15 15 15 15 15 15 15 15 15 15 15 15 15 16 16 16 16 16 16 16 16 16 16 16 16 16 16 17 17
17 17 17 16 16 16 16 16 16 16 16 15 15 15 15 15 15 15 15 15 15 15 15 15 15 15 15 15 16 16 16 16 16 16 16 16 16 16 16 16 16 16 16
17 17 17 16 16 16 16 16 16 16 15 15 15 15 15 15 15 15 15 15 15 15 15 15 15 15 15 15 15 15 15 15 15 16 16 16 16 16 16 16 16 16 16
17 17 17 16 16 16 16 16 16 16 15 15 15 15 15 15 15 15 15 15 15 15 15 15 15 15 15 15 15 15 15 15 15 15 15 15 16 16 16 16 16 16 16
17 17 17 16 16 16 16 16 16 15 15 15 15 15 15 15 15 15 15 15 15 15 15 15 15 15 15 15 15 15 15 15 15 15 15 15 15 15 16 16 16 16 16
17 17 16 16 16 16 16 16 15 15 15 15 15 15 15 15 15 15 15 15 15 15 15 15 15 15 15 15 15 15 15 15 15 15 15 15 15 15 15 15 15 15 16
17 17 17 16 16 16 16 16 15 15 15 15 15 15 15 15 15 15 15 15 15 15 15 15 15 15 15 15 15 15 15 15 15 15 15 15 15 15 15 15 15 15 15
17 17 16 16 16 16 16 16 15 15 15 15 15 15 15 15 15 15 15 15 15 15 15 15 15 15 15 15 15 15 15 15 15 15 15 15 15 15 15 15 15 15 15
17 17 16 16 16 16 16 16 15 15 15 15 15 15 15 15 15 15 15 15 15 15 15 15 15 15 15 15 15 15 15 15 15 14 14 14 14 14 15 15 15 15 15
17 17 16 16 16 16 16 16 15 15 15 15 15 15 15 15 15 15 15 15 15 15 15 15 15 15 15 15 15 15 15 14 14 14 14 14 14 14 14 14 14 14 14
17 17 16 16 16 16 16 16 15 15 15 15 15 15 15 14 14 15 15 15 15 15 15 15 15 15 15 15 15 15 15 14 14 14 14 14 14 14 14 14 14 14 14
17 17 16 16 16 16 16 15 15 15 15 15 15 15 14 14 14 14 14 14 14 14 15 14 15 15 15 15 15 15 14 14 14 14 14 14 14 14 14 14 14 14 14
17 17 17 16 16 16 16 15 15 15 15 15 15 15 14 14 14 14 14 14 14 14 14 14 14 14 14 14 14 14 14 14 14 14 14 14 14 14 14 14 14 14 14
17 17 16 16 16 16 16 16 15 15 15 15 15 15 14 14 14 14 14 14 14 14 14 14 14 14 14 14 14 14 14 14 14 14 14 14 14 14 13 13 13 13 13
Wind_Speed
1 2 7 10 12 13 14 14 14 15 15 15 14 14 14 14 13 13 12 11 10 10 9 9 9 9 9 8 8 8 7 7 7 7 7 6 5 5 5 5 5 4 4
2 4 8 10 12 13 14 14 14 15 15 14 14 13 13 12 12 12 11 11 10 10 9 9 9 8 8 8 7 7 7 7 6 7 6 6 5 5 5 5 5 4 4
4 6 8 11 12 13 14 14 14 14 14 13 13 13 12 11 11 11 11 10 10 9 9 9 8 8 7 7 7 7 7 6 6 6 6 5 4 4 4 4 4 4 4
6 7 8 12 13 13 13 13 13 13 13 13 13 12 12 11 10 10 10 9 9 8 8 8 7 7 7 7 6 6 6 6 6 5 5 4 3 3 3 4 4 4 4
6 7 9 12 13 13 13 13 12 12 12 12 12 11 11 10 10 9 9 9 8 8 8 7 7 7 7 7 6 6 6 6 6 5 5 4 3 2 3 3 3 4 4
5 7 9 12 12 12 12 12 11 11 11 11 11 10 10 9 9 8 8 8 8 8 8 8 8 7 7 7 6 6 6 6 6 5 4 4 3 4 3 3 3 3 4
5 7 9 11 11 11 11 11 11 11 10 10 10 9 9 9 8 8 8 7 7 8 7 7 7 7 7 7 6 7 6 6 5 4 3 3 2 3 3 2 2 3 3
5 6 8 9 10 11 10 10 10 9 9 9 9 9 9 8 8 7 7 7 7 7 7 7 7 7 6 7 7 7 7 6 4 4 3 2 2 3 3 3 2 2 2
5 5 6 6 7 8 9 9 8 8 8 8 8 8 8 8 7 7 6 6 7 7 7 7 7 7 7 7 7 7 7 7 5 3 2 2 2 3 3 3 3 3 2
4 4 4 5 6 6 6 7 7 7 7 7 7 7 7 8 7 7 7 7 7 8 8 8 7 7 7 7 7 7 7 6 5 4 3 2 3 3 3 2 3 3 3
3 2 3 3 5 5 5 6 7 7 8 8 7 8 8 8 8 7 8 7 7 7 8 8 8 8 7 7 7 7 7 5 4 4 3 3 3 2 3 3 3 3 3
1 0 1 2 3 4 4 6 7 7 8 8 8 8 8 8 8 8 9 9 9 9 9 9 9 9 8 7 7 7 6 5 4 4 4 4 2 2 2 3 3 3 3
2 1 1 2 3 3 4 5 6 7 7 8 8 8 8 8 8 9 9 9 9 9 9 9 9 8 7 6 5 5 5 5 5 5 4 4 3 3 3 3 4 3 4
2 2 2 2 3 4 5 5 5 5 6 6 7 7 7 6 6 6 6 7 8 7 7 7 6 7 7 7 6 5 6 5 5 5 5 5 5 4 4 4 4 4 4
3 2 2 2 3 3 4 4 5 5 6 6 7 7 7 5 3 4 5 6 7 7 6 5 5 6 5 6 6 6 5 6 6 6 6 7 7 6 5 6 6 6 5
3 3 3 3 3 5 4 3 4 5 6 7 7 7 7 6 4 4 4 5 6 6 6 5 5 4 4 4 5 6 6 6 7 8 8 8 9 8 7 7 7 7 7
4 4 4 4 4 5 4 4 5 5 7 6 6 7 7 7 6 5 4 4 5 6 6 6 5 6 4 5 6 6 6 7 7 8 9 9 9 9 9 8 8 8 8
5 4 4 4 5 5 5 5 5 6 7 6 7 8 8 8 7 6 4 4 6 6 5 3 4 4 5 5 5 5 5 6 7 8 9 9 9 9 9 10 10 9 9
4 5 5 5 5 5 5 6 7 7 7 7 8 8 8 9 8 7 5 4 6 5 4 3 4 3 4 4 4 5 5 5 6 7 8 8 9 9 9 9 10 10 10
4 5 6 5 5 5 5 5 5 5 5 7 8 8 8 9 9 8 6 6 6 4 4 4 4 4 3 3 4 5 5 5 5 6 6 7 9 9 9 9 8 9 11
5 5 5 6 4 4 4 3 3 3 2 3 5 8 9 9 8 8 5 5 5 4 4 4 3 4 4 3 3 4 4 5 6 6 6 6 7 9 10 9 8 8 9
4 4 5 5 5 4 3 3 3 3 2 1 3 7 9 9 8 7 6 4 4 4 6 5 4 3 3 4 3 3 3 5 5 5 5 5 6 7 8 9 9 9 9
4 5 5 4 4 4 4 4 4 4 3 3 4 4 7 8 8 8 7 5 5 4 4 5 4 3 2 4 3 3 3 0 2 4 4 5 6 5 6 7 9 9 9
5 4 5 5 5 4 5 5 5 4 2 1 1 2 4 8 8 8 7 7 5 4 4 4 4 3 3 2 3 3 2 2 2 2 4 4 5 5 6 6 8 9 10
5 5 5 5 5 4 5 6 6 4 2 1 2 3 4 5 8 8 8 7 6 4 4 5 5 5 4 3 2 2 3 3 3 2 2 4 4 4 4 5 6 8 10
5 4 5 5 4 4 5 5 5 6 4 4 3 3 3 3 4 6 7 7 6 5 4 4 4 5 4 4 4 3 2 2 1 2 1 2 2 3 3 4 6 7 9
Wind_Direction
23 79 108 104 102 102 102 101 99 101 101 101 100 98 97 97 96 95 92 89 87 85 84 83 82 82 81 80 78 76 75 74 74 75 76 73 73 80 87 92 84 79 88
127 104 109 107 106 103 103 102 100 98 98 98 97 97 96 95 94 91 89 88 86 82 80 79 79 78 77 77 78 75 73 74 76 73 70 65 66 79 88 90 85 88 88
100 97 107 110 108 104 103 102 100 99 98 98 97 96 94 92 91 89 87 85 81 78 75 73 74 74 72 71 72 68 68 73 73 71 61 48 49 74 83 82 82 89 86
101 100 110 111 106 104 102 101 101 100 99 97 95 93 91 88 86 85 83 81 77 74 71 67 64 65 66 64 64 63 63 68 70 66 55 42 31 72 81 78 70 82 87
93 100 111 110 106 105 103 103 103 102 99 95 92 90 87 85 83 82 79 76 71 68 65 60 58 58 59 58 58 61 61 64 63 59 52 42 27 70 80 79 69 79 82
92 102 107 108 108 106 104 103 102 100 97 92 88 84 81 80 81 80 75 71 66 61 57 53 52 52 51 52 54 58 59 63 62 60 50 39 32 60 67 68 65 80 81
97 97 106 107 107 107 105 102 98 94 90 85 81 78 73 72 70 69 67 63 59 56 52 48 45 45 46 48 53 56 59 66 70 62 49 37 32 54 64 60 62 72 79
99 89 95 102 104 103 99 96 94 91 86 80 74 70 67 66 63 61 60 55 49 46 43 39 37 37 40 45 50 50 53 57 58 55 45 26 18 44 57 57 62 58 69
89 81 73 78 84 89 90 90 86 82 78 71 63 60 58 55 50 48 50 44 40 37 36 34 34 38 40 43 50 51 52 55 50 39 32 7 6 30 43 54 53 52 55
79 70 64 63 64 63 66 71 72 67 63 57 52 51 48 43 36 34 34 36 38 39 35 35 32 32 34 38 45 46 47 45 37 23 16 359 356 23 36 50 51 47 37
86 64 60 53 52 51 50 54 51 52 49 48 45 45 44 38 31 27 26 31 33 34 38 37 37 40 38 37 39 40 40 35 25 11 358 351 353 10 28 43 46 40 24
135 73 81 62 48 48 54 50 46 48 47 50 51 52 51 46 38 37 33 35 38 41 42 41 46 46 42 37 34 35 35 30 23 6 359 0 6 12 21 38 35 37 27
169 111 76 85 66 68 63 55 50 50 51 54 54 56 59 52 45 40 35 30 34 37 37 39 42 41 42 41 39 39 38 36 22 9 2 13 19 23 29 34 33 36 35
124 104 68 86 84 78 75 64 59 58 55 53 53 57 60 53 43 36 35 29 31 31 34 37 37 35 40 43 49 48 41 37 27 18 15 23 24 27 35 34 30 33 39
127 110 88 97 104 95 82 72 71 66 66 66 61 57 65 64 47 40 34 30 28 31 35 36 36 33 34 37 45 51 42 36 33 32 28 31 35 34 38 38 36 38 38
134 126 110 89 99 101 93 90 81 75 77 74 64 59 65 68 63 53 39 29 25 27 35 42 42 42 38 44 41 44 45 43 39 36 33 32 38 39 42 42 41 40 38
140 129 127 114 95 94 97 94 83 76 76 68 58 58 61 65 67 63 50 32 21 30 41 46 43 45 43 44 39 37 43 43 43 38 36 34 32 34 41 44 43 41 39
136 126 119 118 104 98 94 90 80 74 71 62 59 57 57 59 66 63 51 32 26 39 43 45 39 42 40 42 41 33 36 38 39 39 38 35 33 31 32 40 41 39 39
137 124 108 106 106 102 92 85 76 68 60 54 54 52 53 58 63 66 56 39 40 45 37 44 45 48 44 36 47 44 35 34 31 37 35 32 31 31 32 37 38 36 35
122 116 112 105 104 103 91 81 68 57 45 45 46 45 49 54 59 63 56 42 46 48 36 39 51 47 49 33 54 50 37 32 37 35 30 31 31 30 34 38 35 28 30
119 118 120 120 119 117 106 98 88 67 38 29 34 42 46 51 55 59 55 44 45 50 41 39 52 50 36 18 51 32 19 31 40 30 23 28 28 28 34 38 36 33 28
145 139 131 135 135 131 123 116 112 109 73 42 27 38 40 44 48 55 55 50 45 51 43 37 46 55 35 30 70 70 22 5 9 17 18 26 23 26 30 32 33 32 30
157 162 153 146 136 127 117 104 86 63 47 32 23 18 20 37 47 52 56 59 51 54 52 39 42 67 61 31 46 99 103 301 330 348 12 21 19 23 19 24 30 28 28
175 163 145 141 131 129 127 122 121 117 107 54 17 16 22 37 44 48 55 59 57 53 55 42 46 54 78 55 33 44 85 133 109 354 346 2 15 23 15 19 21 20 21
162 154 147 132 123 129 132 132 123 113 112 84 58 48 34 29 37 43 50 56 54 52 55 52 49 53 61 74 63 52 57 53 64 102 358 342 355 360 8 10 13 14 15
147 143 139 131 126 132 132 131 133 131 124 106 80 64 37 25 25 34 45 51 54 55 55 57 57 60 59 65 62 59 69 71 51 79 85 352 342 330 350 6 15 9 9
Height
1527 1528 1529 1529 1530 1531 1532 1532 1533 1533 1534 1534 1535 1536 1536 1537 1537 1537 1538 1538 1538 1538 1539 1539 1539 1539 1539 1539 1539 1540 1540 1540 1540 1540 1540 1541 1541 1541 1541 1541 1541 1541 1542
1528 1529 1530 1530 1531 1532 1533 1534 1534 1535 1535 1536 1536 1537 1538 1538 1538 1538 1538 1539 1539 1540 1540 1540 1540 1540 1540 1540 1540 1540 1541 1541 1541 1541 1541 1541 1541 1541 1542 1542 1542 1542 1542
1530 1531 1532 1532 1533 1534 1535 1535 1536 1537 1537 1537 1538 1538 1539 1539 1539 1539 1539 1540 1540 1540 1540 1541 1541 1541 1541 1541 1541 1541 1541 1542 1542 1542 1542 1542 1542 1542 1542 1542 1542 1543 1543
1531 1532 1533 1534 1535 1535 1536 1537 1538 1538 1539 1539 1539 1539 1540 1540 1540 1540 1541 1541 1541 1541 1541 1541 1541 1541 1542 1542 1542 1542 1542 1542 1542 1542 1542 1542 1542 1541 1542 1542 1543 1543 1543
1533 1534 1535 1536 1536 1537 1538 1538 1539 1539 1540 1540 1540 1541 1541 1541 1541 1541 1541 1541 1542 1542 1542 1542 1542 1542 1542 1543 1543 1543 1543 1543 1543 1543 1543 1542 1541 1540 1542 1543 1543 1544 1544
1535 1536 1537 1538 1538 1539 1539 1540 1541 1541 1541 1541 1542 1542 1542 1542 1542 1542 1542 1542 1542 1542 1542 1542 1542 1543 1543 1543 1544 1544 1544 1544 1544 1544 1543 1543 1542 1542 1543 1543 1544 1544 1544
1537 1538 1539 1539 1540 1541 1541 1542 1542 1542 1543 1543 1543 1543 1543 1543 1543 1543 1543 1543 1543 1543 1543 1543 1543 1543 1544 1544 1544 1544 1544 1545 1545 1544 1544 1544 1544 1544 1544 1544 1544 1544 1544
1539 1540 1541 1541 1542 1543 1543 1544 1544 1544 1545 1545 1545 1545 1544 1544 1544 1544 1544 1544 1544 1544 1544 1544 1544 1544 1544 1544 1544 1545 1545 1545 1545 1545 1545 1544 1544 1544 1544 1544 1544 1545 1545
1541 1542 1543 1544 1544 1545 1545 1546 1546 1546 1546 1546 1546 1546 1546 1545 1545 1545 1545 1545 1545 1544 1544 1544 1544 1544 1545 1545 1545 1545 1545 1545 1545 1545 1545 1545 1545 1545 1544 1545 1545 1545 1545
1543 1544 1545 1546 1546 1547 1547 1548 1548 1548 1548 1548 1548 1548 1547 1547 1546 1546 1546 1546 1545 1545 1545 1545 1545 1545 1545 1545 1545 1545 1545 1545 1545 1546 1545 1545 1545 1545 1545 1545 1545 1545 1544
1545 1546 1547 1548 1548 1549 1549 1549 1550 1550 1550 1549 1549 1549 1549 1548 1548 1547 1547 1547 1546 1546 1546 1546 1545 1545 1545 1545 1546 1545 1545 1545 1545 1545 1545 1545 1545 1545 1545 1545 1545 1545 1544
1546 1547 1549 1550 1550 1550 1551 1551 1551 1551 1551 1551 1551 1550 1550 1550 1549 1549 1548 1548 1548 1547 1547 1547 1546 1546 1546 1546 1546 1546 1546 1545 1545 1545 1545 1545 1545 1545 1545 1545 1545 1545 1544
1547 1549 1550 1551 1552 1552 1552 1553 1553 1553 1553 1552 1552 1552 1552 1551 1551 1550 1550 1549 1549 1549 1548 1548 1547 1547 1547 1547 1547 1546 1546 1546 1546 1545 1545 1546 1546 1545 1546 1546 1545 1545 1544
1548 1550 1551 1552 1553 1554 1554 1554 1554 1554 1554 1554 1554 1553 1553 1552 1552 1552 1551 1551 1550 1550 1550 1549 1548 1548 1548 1548 1548 1547 1547 1547 1546 1546 1546 1546 1546 1546 1546 1546 1546 1545 1545
1550 1551 1552 1554 1554 1555 1555 1556 1556 1555 1555 1555 1555 1554 1554 1554 1553 1553 1552 1552 1552 1551 1551 1550 1550 1549 1549 1549 1549 1549 1548 1548 1548 1548 1547 1547 1547 1547 1547 1547 1546 1546 1546
1551 1552 1553 1554 1556 1556 1557 1557 1557 1557 1556 1556 1556 1555 1555 1555 1554 1554 1554 1553 1553 1552 1552 1551 1551 1550 1550 1550 1550 1550 1550 1549 1549 1549 1549 1549 1548 1548 1548 1547 1547 1547 1546
1552 1554 1555 1556 1556 1557 1558 1558 1558 1558 1558 1557 1557 1557 1556 1556 1556 1555 1555 1554 1554 1553 1553 1552 1552 1552 1552 1552 1551 1551 1551 1551 1551 1551 1550 1550 1550 1549 1549 1548 1548 1547 1547
1554 1555 1556 1557 1558 1558 1559 1559 1559 1559 1559 1559 1558 1558 1557 1557 1557 1556 1556 1555 1555 1554 1554 1554 1553 1553 1553 1553 1553 1553 1553 1552 1552 1552 1552 1551 1551 1550 1550 1549 1549 1548 1548
1555 1556 1557 1558 1558 1559 1560 1560 1560 1560 1560 1560 1559 1559 1559 1558 1558 1558 1557 1557 1556 1556 1555 1555 1555 1554 1554 1554 1554 1554 1554 1554 1553 1553 1553 1553 1552 1551 1551 1551 1550 1549 1549
1555 1557 1558 1558 1559 1560 1561 1561 1561 1562 1561 1561 1561 1560 1560 1560 1559 1559 1559 1558 1558 1557 1557 1556 1556 1556 1556 1555 1555 1555 1555 1555 1555 1554 1554 1554 1553 1553 1552 1552 1551 1550 1550
1556 1557 1558 1559 1560 1561 1561 1562 1562 1563 1563 1563 1562 1562 1562 1561 1561 1560 1560 1559 1559 1558 1558 1557 1557 1557 1557 1557 1557 1557 1557 1556 1556 1556 1555 1555 1554 1554 1554 1553 1552 1552 1551
1556 1557 1559 1560 1561 1562 1562 1563 1563 1564 1564 1564 1564 1563 1563 1563 1562 1562 1561 1561 1560 1559 1559 1558 1558 1558 1558 1558 1558 1557 1558 1559 1558 1557 1557 1556 1556 1555 1555 1554 1553 1553 1552
1556 1557 1559 1560 1561 1562 1563 1564 1564 1565 1565 1565 1565 1565 1564 1564 1564 1563 1562 1562 1561 1560 1560 1559 1559 1559 1559 1559 1559 1559 1558 1558 1558 1559 1558 1557 1557 1556 1556 1555 1555 1554 1553
1556 1557 1559 1560 1561 1562 1563 1564 1565 1565 1566 1566 1566 1566 1566 1566 1565 1564 1564 1563 1562 1562 1561 1560 1560 1560 1560 1560 1560 1559 1560 1559 1559 1559 1559 1558 1558 1557 1557 1556 1555 1555 1554
1555 1557 1559 1560 1561 1562 1563 1564 1565 1566 1566 1567 1567 1567 1567 1567 1566 1566 1565 1564 1564 1563 1562 1562 1561 1561 1561 1561 1560 1560 1560 1560 1559 1559 1559 1559 1559 1558 1557 1557 1556 1555 1554
1555 1557 1559 1560 1561 1562 1564 1565 1566 1566 1567 1567 1568 1568 1568 1568 1567 1567 1566 1566 1565 1564 1564 1563 1563 1563 1562 1562 1562 1561 1561 1560 1560 1560 1559 1559 1559 1559 1558 1558 1557 1556 1555